This is the latest recevied weather packets stored in our database for station/object KQ4LLM. If no packets are shown the sender has not sent any weather packets the latest 10 day(s).
| Time | Temp. | Humidity | Pressure | Rain* | Wind** | Luminosity | Snow |
|---|---|---|---|---|---|---|---|
| 1778009534 | 26.11° C | 38% | - | 0 mm | - | - | - |
| 1778009233 | 26.67° C | 37% | - | 0 mm | - | - | - |
| 1778008929 | 26.11° C | 38% | - | 0 mm | - | - | - |
| 1778008628 | 25.56° C | 38% | - | 0 mm | - | - | - |
| 1778008326 | 25.56° C | 38% | - | 0 mm | - | - | - |
| 1778008022 | 26.11° C | 39% | - | 0 mm | - | - | - |
| 1778007721 | 26.11° C | 38% | - | 0 mm | - | - | - |
| 1778007419 | 25.56° C | 41% | - | 0 mm | - | - | - |
| 1778007115 | 25.56° C | 37% | - | 0 mm | - | - | - |
| 1778006811 | 25° C | 39% | - | 0 mm | - | - | - |
| 1778006508 | 25° C | 38% | - | 0 mm | - | - | - |
| 1778006205 | 25° C | 41% | - | 0 mm | - | - | - |
| 1778005903 | 25° C | 40% | - | 0 mm | - | - | - |
| 1778005599 | 25.56° C | 37% | - | 0 mm | - | - | - |
| 1778005296 | 25.56° C | 39% | - | 0 mm | - | - | - |
| 1778004992 | 25° C | 36% | - | 0 mm | - | - | - |
| 1778004690 | 25° C | 39% | - | 0 mm | - | - | - |
| 1778004386 | 25° C | 40% | - | 0 mm | - | - | - |
| 1778004083 | 25.56° C | 39% | - | 0 mm | - | - | - |
| 1778003779 | 25.56° C | 40% | - | 0 mm | - | - | - |
| 1778003476 | 25.56° C | 41% | - | 0 mm | - | - | - |
| 1778003172 | 25.56° C | 38% | - | 0 mm | - | - | - |
| 1778002868 | 25.56° C | 40% | - | 0 mm | - | - | - |
| 1778002565 | 25° C | 39% | - | 0 mm | - | - | - |
| 1778002262 | 25° C | 40% | - | 0 mm | - | - | - |
* Rain latest hour (hover to see other rain measurements)
** Current wind speed in m/s (hover to see current wind gust speed)